Погода в Киренске

Погода в Киренске : погода сейчас, прогноз погоды и архив. Всё, что Вы хотите узнать о погоде в Киренске!

Хотите узнать прогноз погоды в Киренске? Тогда Вам сюда: Погода в Киренске

Поиск расширенной информации на нашем сайте:

Другие новости

Новости СМИ2

Главная страница сайта

Новости сайта

03.07.2017

Напоминаем, что на нашем специализированном сайте Метеоцентр.Азия вы можете получить высокодетализированные автоматические прогнозы погоды по пунктам России, СНГ и мира в авиационном формате (включающие направление и скорость ветра, видимость, явления погоды, количество и форму облачности, нижнюю и верхнюю границу облачности).


Погода в Киренске - сегодня

Время (UTC), дата Ветер
(°,м/с) 
Видим.   Явления Облачность Т
(°С)
Тd
(°С)
f(%) Тe
(°С)
Pmin
(гПа)
dP
(гПа)
Po
(мм)
O2
(г/м3)
Тmin Tmax R s Состояние
почвы
21 17.02.18 240 (ЮЗ) н/о  слаб. ливневой снег  10/5 600 м кучево-дожд., средняя, верхняя 
[Cb cap|Ac trans|Ci fib]
-15.2 -18.5 76 -19  1031.2  0.1  747  320           
00 18.02.18 200 (Ю) 4000 м  слаб. ливневой снег  10/5 600 м кучево-дожд., верхняя 
[Cb cap|Cs]
-16 -18.8 79 -18  1031.6  0.4  748  322  -16    0.6  58  неравномерный
сухой снег
100% 
06 18.02.18 220 (ЮЗ) 4000 м  слаб. ливневой снег  10/6 600 м кучево-дожд., средняя, верхняя 
[Cb cap|Ac trans|Ci fib]
-13.4 -17.9 69 -17  1030.5  -0.7  747  318           
09 18.02.18 230 (ЮЗ) 10 км  слаб. ливневой снег  10/6 600 м кучево-дожд., средняя, верхняя 
[Cb cap|Ac trans|Ci fib]
-13.2 -18.3 65 -18  1030.1  -0.4  747  318           
12 18.02.18 200 (Ю) н/о  слаб. ливневой снег  10/4 600 м кучево-дожд., средняя, верхняя 
[Cb cap|Ac trans|Ci fib]
-15.7 -18.4 80 -18  1031.6  1.1  748  321    -13  0.5     
15 18.02.18 200 (Ю) н/о  слаб. ливневой снег  10/5 600 м кучево-дожд., средняя, верхняя 
[Cb cap|Ac trans|Ci fib]
-20.6 -22.8 83 -23  1032.6  0.3  748  328           
18 18.02.18 тихо ()   н/о  слаб. ливневой снег  10/4 600 м кучево-дожд., средняя, верхняя 
[Cb cap|Ac trans|Ci fib]
-26 -29 76 -26  1033.2  -0.2  748  335           
21 18.02.18 тихо ()   н/о  слаб. ливневой снег  10/8 600 м кучево-дожд., средняя, верхняя 
[Cb cap|Ac trans|Ci fib]
-26 -29.1 75 -26  1032.6  -0.6  747  335           
00 19.02.18 тихо ()   10 км  слаб. ливневой снег  10/3 600 м кучево-дожд., средняя, верхняя 
[Cb cap|Ac trans|Ci fib]
-28.2 -31.5 73 -28  1032.5  -0.4  747  338  -28.2    0.2  58  неравномерный
сухой снег
100% 
06 19.02.18 200 (Ю) 10 км  слаб. ливневой снег  10/5 600 м кучево-дожд., средняя, верхняя 
[Cb cap|Ac trans|Ci fib]
-14.6 -19.9 64 -20  1028.9  -1.6  746  319           
09 19.02.18 190 (Ю) 10 км  слаб. ливневой снег  10/5 600 м кучево-дожд., средняя, верхняя 
[Cb cap|Ac trans|Ci fib]
-14.5 -17.9 75 -17  1028.5  -0.3  746  319           
12 19.02.18 тихо ()   н/о  слаб. ливневой снег  10/5 600 м кучево-дожд., верхняя 
[Cb cap|Ci fib]
-19.4 -21.5 83 -19  1029.3  0.1  746  325    -14.2  0.3     
15 19.02.18 тихо ()   н/о  слаб. снег{ливн. осадки}  10/3 600 м средняя, верхняя 
[Sc diur, vesp|Ac trans|Ci fib]
-22.8 -25.7 77 -23  1029.3  -0.5  745  329           
18 19.02.18 290 (З) н/о  слаб. снег{ливн. осадки}  10/3 600 м средняя, верхняя 
[Sc diur, vesp|Ac trans|Ci fib]
-25.7 -28.9 75 -26  1029  -0.7  745  333           
21 19.02.18 280 (З) н/о  слаб. снег  10/4 600 м средняя, верхняя 
[Sc|Ac trans|Ci fib]
-24.8 -27.9 75 -25  1027.2  -1.6  744  331           
00 20.02.18 тихо ()   4000 м  слаб. снег  10/5 600 м верхняя 
[Sc|Cs]
-23.4 -26.4 76 -23  1025.6  -1.4  743  329  -26.2    0.8  58  неравномерный
сухой снег
100% 
03 20.02.18 тихо ()   4000 м  слаб. снег  10/6 600 м верхняя 
[Sc|Cs]
-18.2 -21.1 78 -18  1023.4  -1.3  742  322           
06 20.02.18 200 (Ю) 4000 м  слаб. ливневой снег  10/8 600 м кучево-дожд., верхняя 
[Cb cap|Cs]
-12.4 -15.7 76 -16  1021  -1.7  740  314           
09 20.02.18 260 (З) 20000 м  позёмок{ливн. осадки}  10/4 600 м кучево-дожд., верхняя 
[Cb cap|Cs]
-12.1 -18.6 58 -15  1021.2  0.3  740  314           
12 20.02.18 250 (З) н/о  слаб. ливневой снег  10/5 600 м кучево-дожд., верхняя 
[Cb cap|Cs]
-13.6 -17 75 -16  1022.6  1.2  741  316    -11.8  0.8     
15 20.02.18 210 (ЮЗ) н/о  {ливн. осадки}  10/0 верхняя 
[Cs]
-17.7 -20.3 80 -18  1023.8  0.6  742  321           
18 20.02.18 070 (В) н/о  слаб. снег{ливн. осадки}  10/0 верхняя 
[Cs]
-22 -24.6 79 -22  1024.4  742  327           
21 20.02.18 тихо ()   н/о  слаб. снег  10/0 верхняя 
[Cs]
-22.6 -25.3 79 -23  1024.7  0.2  742  328           
00 21.02.18 270 (З) 20000 м  слаб. снег  10/0 верхняя 
[Cs]
-25 -28.1 75 -26  1024.9  -0.1  742  331  -25    0.2  58  неравномерный
сухой снег
100% 
06 21.02.18 200 (Ю) 20000 м  слаб. снег  10/0 средняя, верхняя 
[Ac trans|Ci fib]
-14 -19.3 64 -18  1022.2  -1.4  741  316           
Время (UTC), дата Ветер
(°,м/с) 
Видим.   Явления Облачность Т
(°С)
Тd
(°С)
f(%) Тe
(°С)
Pmin
(гПа)
dP
(гПа)
Po
(мм)
O2
(г/м3)
Тmin Tmax R s Состояние
почвы

Для получения пояснительной информации подведите курсор к названию столбца.

ПОГОДА в Киренске - архив

Всё, что Вы хотите узнать о погоде в Киренске - удобно и подробно!

Выберите нужную дату (начиная с 1 января 2015* года) и нажмите кнопку "Найти".
Будут отображены архивные сводки погоды по пункту Киренск, начиная с указанной даты.


Отображать данные в формате CSV (для использования в таблицах Excel)


Внимание! Наш архив погоды предназначен исключительно для личного некоммерческого использования в познавательных целях. Если Вам необходимы официальные справки о состоянии погоды (для производственных, юридических, коммерческих и т.п. целей), обращайтесь в органы Росгидромета.

*Примечание: данная дата относится к архиву по метеостанциям СССР (Россия, СНГ, Балтия).
Архив по метеостанциям Зарубежной Европы и Азии (кроме Китая) хранится 10 дней, по другим регионам земного шара (Китай, Африка, Америка, Австралия, Океания) - 1 день.

Киренск - район местоположения метеостанции


Название, широта, долгота, высота метеостанции:
Киренск 57.8°ш. 108.1°д. 259 м над ур. моря [Российская Федерация]

Дополнительная информация

В oтличие oт бoльшинства пoгoдных сайтoв мы публикуем пoдрoбную метеoинфoрмацию в детальнoм прoфессиoнальнoм фoрмате.

Характеристики температуры и влажнoсти вoздуха измеряются на высoте 2 м в тени вдали oт зданий и деревьев.
Скoрoсть ветра измеряется на высoте 10 м (на урoвне рoста челoвека скoрoсть ветра ниже в 1.5-2 раза). Если метеoстанция нахoдится в гoрoде или в лесу, тo скoрoсть ветра занижена на 2-4 м/с пo сравнению с oткрытым местoм. Скoрoсть ветра над акватoриями крупных рек и oзёр, а также на вершинах хoлмoв на 2-5 м/с выше, чем в oбычных услoвиях.
Атмoсфернoе давление в разных тoчках местнoсти мoжет значительнo oтличаться oт давления на метеoстанции, в зависимoсти oт услoвий рельефа (при пoдъёме на 10 м давление пoнижается примернo на 1 мм рт.ст.).